Time,TemperatureF,DewpointF,PressureIn,WindDirection,WindDirectionDegrees,WindSpeedMPH,WindSpeedGustMPH,Humidity,HourlyPrecipIn,Conditions,Clouds,dailyrainin,SoftwareType,DateUTC
2013-05-26 00:02:00,50.2,45.2,29.96,ENE,67,0.0,0.0,83,0.00,-RA,FEW,0.00,WeatherDisplay:10.37,2013-05-26 07:02:00,
2013-05-26 00:17:00,50.2,45.2,29.96,NNW,338,0.0,0.0,83,0.00,-RA,FEW,0.00,WeatherDisplay:10.37,2013-05-26 07:17:00,
2013-05-26 00:32:00,49.8,45.2,29.96,NNW,338,0.0,0.0,84,0.00,-RA,FEW,0.00,WeatherDisplay:10.37,2013-05-26 07:32:00,
2013-05-26 00:47:00,49.8,45.2,29.96,SSE,158,0.0,0.0,84,0.00,-RA,FEW,0.00,WeatherDisplay:10.37,2013-05-26 07:47:00,
2013-05-26 01:02:00,49.8,45.2,29.96,SSE,158,0.0,0.0,84,0.00,OVC,FEW,0.00,WeatherDisplay:10.37,2013-05-26 08:02:00,
2013-05-26 01:17:00,49.8,45.2,29.95,ENE,66,0.0,2.0,84,0.00,OVC,FEW,0.00,WeatherDisplay:10.37,2013-05-26 08:17:00,
2013-05-26 01:32:00,49.8,45.2,29.96,NNW,338,0.0,0.0,84,0.00,OVC,FEW,0.00,WeatherDisplay:10.37,2013-05-26 08:32:00,
2013-05-26 01:47:00,49.8,45.2,29.96,NNW,338,0.0,0.0,84,0.00,OVC,FEW,0.00,WeatherDisplay:10.37,2013-05-26 08:47:00,
2013-05-26 02:02:00,49.9,45.6,29.96,WNW,289,0.0,0.0,85,0.00,-RA,FEW,0.00,WeatherDisplay:10.37,2013-05-26 09:02:00,
2013-05-26 02:17:00,49.8,45.5,29.96,West,270,0.0,0.0,85,0.02,-RA,FEW,0.02,WeatherDisplay:10.37,2013-05-26 09:17:00,
2013-05-26 02:32:00,49.8,45.5,29.96,WSW,257,0.0,0.0,85,0.00,-RA,FEW,0.02,WeatherDisplay:10.37,2013-05-26 09:32:00,
2013-05-26 02:47:00,49.8,45.5,29.95,ENE,73,0.0,0.0,85,0.00,-RA,FEW,0.02,WeatherDisplay:10.37,2013-05-26 09:47:00,
2013-05-26 03:02:00,49.8,45.5,29.94,NE,45,0.0,0.0,85,0.00,OVC,FEW,0.02,WeatherDisplay:10.37,2013-05-26 10:02:00,
2013-05-26 03:17:00,49.8,45.5,29.95,NE,45,0.0,1.0,85,0.00,OVC,FEW,0.02,WeatherDisplay:10.37,2013-05-26 10:17:00,
2013-05-26 03:32:00,49.8,45.5,29.94,NNW,344,0.0,0.0,85,0.00,OVC,FEW,0.02,WeatherDisplay:10.37,2013-05-26 10:32:00,
2013-05-26 03:47:00,49.6,45.3,29.95,SSE,165,0.0,0.0,85,0.00,OVC,FEW,0.02,WeatherDisplay:10.37,2013-05-26 10:47:00,
2013-05-26 04:02:00,49.8,45.5,29.94,NNW,338,0.0,0.0,85,0.00,OVC,FEW,0.02,WeatherDisplay:10.37,2013-05-26 11:02:00,
2013-05-26 04:17:00,49.8,45.5,29.95,WNW,292,0.0,0.0,85,0.00,OVC,FEW,0.02,WeatherDisplay:10.37,2013-05-26 11:17:00,
2013-05-26 04:32:00,49.8,45.5,29.95,SE,144,0.0,0.0,85,0.00,OVC,FEW,0.02,WeatherDisplay:10.37,2013-05-26 11:32:00,
2013-05-26 04:47:00,49.8,45.5,29.94,SSE,158,0.0,0.0,85,0.00,OVC,FEW,0.02,WeatherDisplay:10.37,2013-05-26 11:47:00,
2013-05-26 05:02:00,49.8,45.5,29.95,SSE,160,0.0,0.0,85,0.00,-RA,FEW,0.02,WeatherDisplay:10.37,2013-05-26 12:02:00,
2013-05-26 05:17:00,49.8,45.5,29.95,SSW,203,0.0,0.0,85,0.00,-RA,FEW,0.02,WeatherDisplay:10.37,2013-05-26 12:17:00,
2013-05-26 05:32:00,50.2,45.8,29.95,SE,135,0.0,0.0,85,0.02,-RA,FEW,0.04,WeatherDisplay:10.37,2013-05-26 12:32:00,
2013-05-26 05:47:00,50.2,45.8,29.95,SE,126,0.0,0.0,85,0.00,-RA,FEW,0.04,WeatherDisplay:10.37,2013-05-26 12:47:00,
2013-05-26 06:02:00,50.2,45.8,29.95,ESE,112,0.0,0.0,85,0.00,-RA,FEW,0.04,WeatherDisplay:10.37,2013-05-26 13:02:00,
2013-05-26 06:17:00,50.4,46.0,29.95,SE,129,0.0,0.0,85,0.00,-RA,FEW,0.04,WeatherDisplay:10.37,2013-05-26 13:17:00,
2013-05-26 06:32:00,50.5,46.2,29.96,SE,133,0.0,0.0,85,0.00,-RA,FEW,0.04,WeatherDisplay:10.37,2013-05-26 13:32:00,
2013-05-26 06:47:00,50.9,46.6,29.96,ESE,118,0.0,0.0,85,0.00,-RA,FEW,0.04,WeatherDisplay:10.37,2013-05-26 13:47:00,
2013-05-26 07:02:00,51.4,47.1,29.96,ESE,102,0.0,0.0,85,0.00,OVC,FEW,0.04,WeatherDisplay:10.37,2013-05-26 14:02:00,
2013-05-26 07:17:00,51.9,47.9,29.96,NNE,31,0.0,0.0,86,0.00,OVC,FEW,0.04,WeatherDisplay:10.37,2013-05-26 14:17:00,
2013-05-26 07:32:00,52.7,48.6,29.96,NNE,30,0.0,0.0,86,0.00,OVC,FEW,0.04,WeatherDisplay:10.37,2013-05-26 14:32:00,
2013-05-26 07:47:00,53.4,49.3,29.96,West,279,0.0,0.0,86,0.00,OVC,FEW,0.04,WeatherDisplay:10.37,2013-05-26 14:47:00,
2013-05-26 08:02:00,54.0,49.9,29.96,NNW,336,0.0,2.0,86,0.00,-RA,FEW,0.04,WeatherDisplay:10.37,2013-05-26 15:02:00,
2013-05-26 08:17:00,54.3,50.2,29.97,NW,310,0.0,1.0,86,0.00,-RA,FEW,0.04,WeatherDisplay:10.37,2013-05-26 15:17:00,
2013-05-26 08:32:00,54.5,50.1,29.97,West,267,0.0,0.0,85,0.00,-RA,FEW,0.04,WeatherDisplay:10.37,2013-05-26 15:32:00,
2013-05-26 08:47:00,55.2,50.8,29.97,NE,44,0.0,0.0,85,0.00,-RA,FEW,0.04,WeatherDisplay:10.37,2013-05-26 15:47:00,
2013-05-26 09:02:00,56.1,51.6,29.97,WNW,291,0.0,0.0,85,0.00,OVC,FEW,0.04,WeatherDisplay:10.37,2013-05-26 16:02:00,
2013-05-26 09:17:00,56.8,52.4,29.97,NNE,30,0.0,3.0,85,0.00,OVC,FEW,0.04,WeatherDisplay:10.37,2013-05-26 16:17:00,
2013-05-26 09:32:00,57.6,52.8,29.97,NNE,14,0.0,3.0,84,0.00,OVC,FEW,0.04,WeatherDisplay:10.37,2013-05-26 16:32:00,
2013-05-26 09:47:00,58.6,53.5,29.97,NNE,32,1.0,4.0,83,0.00,OVC,FEW,0.04,WeatherDisplay:10.37,2013-05-26 16:47:00,
2013-05-26 10:02:00,58.7,53.5,29.98,NNW,340,1.0,3.0,83,0.00,OVC,FEW,0.04,WeatherDisplay:10.37,2013-05-26 17:02:00,
2013-05-26 10:17:00,57.6,52.1,29.99,North,359,0.0,3.0,82,0.00,OVC,FEW,0.04,WeatherDisplay:10.37,2013-05-26 17:17:00,
2013-05-26 10:32:00,57.6,52.5,29.99,NNE,17,0.0,4.0,83,0.00,OVC,FEW,0.04,WeatherDisplay:10.37,2013-05-26 17:32:00,
2013-05-26 10:47:00,58.8,53.7,29.98,NE,38,2.0,4.0,83,0.00,OVC,FEW,0.04,WeatherDisplay:10.37,2013-05-26 17:47:00,
2013-05-26 11:02:00,60.6,54.8,29.98,NNE,18,0.0,5.0,81,0.00,OVC,FEW,0.04,WeatherDisplay:10.37,2013-05-26 18:02:00,
2013-05-26 11:17:00,61.5,54.9,29.98,East,79,1.0,2.0,79,0.00,OVC,FEW,0.04,WeatherDisplay:10.37,2013-05-26 18:17:00,
2013-05-26 11:32:00,62.2,54.9,29.98,ENE,60,0.0,2.0,77,0.00,OVC,FEW,0.04,WeatherDisplay:10.37,2013-05-26 18:32:00,
2013-05-26 11:47:00,62.2,54.9,29.99,NW,304,0.0,2.0,77,0.00,OVC,FEW,0.04,WeatherDisplay:10.37,2013-05-26 18:47:00,
2013-05-26 12:02:00,62.4,54.0,29.98,WSW,256,1.0,5.0,74,0.00,OVC,FEW,0.04,WeatherDisplay:10.37,2013-05-26 19:02:00,
2013-05-26 12:17:00,62.4,54.0,29.98,SW,221,1.0,6.0,74,0.00,OVC,FEW,0.04,WeatherDisplay:10.37,2013-05-26 19:17:00,
2013-05-26 12:32:00,63.6,54.8,29.99,SSW,205,0.0,6.0,73,0.00,OVC,FEW,0.04,WeatherDisplay:10.37,2013-05-26 19:32:00,
2013-05-26 12:47:00,64.0,54.4,29.98,SW,234,1.0,7.0,71,0.00,OVC,FEW,0.04,WeatherDisplay:10.37,2013-05-26 19:47:00,
2013-05-26 13:02:00,65.1,55.1,29.99,SSW,213,0.0,5.0,70,0.00,OVC,FEW,0.04,WeatherDisplay:10.37,2013-05-26 20:02:00,
2013-05-26 13:17:00,66.0,55.2,29.99,SW,219,2.0,6.0,68,0.00,OVC,FEW,0.04,WeatherDisplay:10.37,2013-05-26 20:17:00,
2013-05-26 13:32:00,66.0,54.7,29.99,WSW,237,2.0,8.0,67,0.00,OVC,FEW,0.04,WeatherDisplay:10.37,2013-05-26 20:32:00,
2013-05-26 13:47:00,65.6,53.9,29.99,SW,223,2.0,14.0,66,0.00,OVC,FEW,0.04,WeatherDisplay:10.37,2013-05-26 20:47:00,
2013-05-26 14:02:00,65.9,53.8,29.99,SSW,207,2.0,8.0,65,0.00,OVC,FEW,0.04,WeatherDisplay:10.37,2013-05-26 21:02:00,
2013-05-26 14:17:00,66.2,53.7,29.99,SW,226,1.0,8.0,64,0.00,OVC,FEW,0.04,WeatherDisplay:10.37,2013-05-26 21:17:00,
2013-05-26 14:32:00,66.4,53.9,29.99,South,182,5.0,11.0,64,0.00,OVC,FEW,0.04,WeatherDisplay:10.37,2013-05-26 21:32:00,
2013-05-26 14:47:00,66.9,53.5,29.99,SSW,209,5.0,10.0,62,0.00,OVC,FEW,0.04,WeatherDisplay:10.37,2013-05-26 21:47:00,
2013-05-26 15:02:00,67.1,53.6,29.99,SSW,209,5.0,10.0,62,0.00,BKN,FEW,0.04,WeatherDisplay:10.37,2013-05-26 22:02:00,
2013-05-26 15:17:00,66.3,52.8,30.00,South,187,3.0,13.0,62,0.00,BKN,FEW,0.04,WeatherDisplay:10.37,2013-05-26 22:17:00,
2013-05-26 15:32:00,65.2,51.9,30.00,SW,216,2.0,14.0,62,0.00,BKN,FEW,0.04,WeatherDisplay:10.37,2013-05-26 22:32:00,
2013-05-26 15:47:00,64.9,52.0,30.01,SSW,206,1.0,12.0,63,0.00,BKN,FEW,0.04,WeatherDisplay:10.37,2013-05-26 22:47:00,
2013-05-26 16:02:00,64.8,51.9,30.01,SSW,193,7.0,15.0,63,0.00,BKN,FEW,0.04,WeatherDisplay:10.37,2013-05-26 23:02:00,
2013-05-26 16:17:00,63.9,50.6,30.01,SSW,203,3.0,9.0,62,0.00,BKN,FEW,0.04,WeatherDisplay:10.37,2013-05-26 23:17:00,
2013-05-26 16:32:00,64.5,52.0,30.01,SSW,196,2.0,7.0,64,0.00,BKN,FEW,0.04,WeatherDisplay:10.37,2013-05-26 23:32:00,
2013-05-26 16:47:00,64.2,50.9,30.01,SSW,195,3.0,10.0,62,0.00,BKN,FEW,0.04,WeatherDisplay:10.37,2013-05-26 23:47:00,
2013-05-26 17:02:00,63.8,51.4,30.01,SSW,204,2.0,8.0,64,0.00,OVC,FEW,0.04,WeatherDisplay:10.37,2013-05-27 00:02:00,
2013-05-26 17:17:00,63.1,50.8,30.01,South,178,2.0,16.0,64,0.00,OVC,FEW,0.04,WeatherDisplay:10.37,2013-05-27 00:17:00,
2013-05-26 17:32:00,61.9,50.0,30.01,SSW,198,2.0,9.0,65,0.00,OVC,FEW,0.04,WeatherDisplay:10.37,2013-05-27 00:32:00,
2013-05-26 17:47:00,62.2,50.7,30.01,SW,214,2.0,8.0,66,0.00,OVC,FEW,0.04,WeatherDisplay:10.37,2013-05-27 00:47:00,
2013-05-26 18:02:00,61.3,49.9,30.01,SW,229,3.0,7.0,66,0.00,OVC,FEW,0.04,WeatherDisplay:10.37,2013-05-27 01:02:00,
2013-05-26 18:17:00,60.4,49.0,30.00,SSW,204,3.0,8.0,66,0.00,OVC,FEW,0.04,WeatherDisplay:10.37,2013-05-27 01:17:00,
2013-05-26 18:32:00,59.7,48.7,30.01,SSW,199,2.0,10.0,67,0.00,OVC,FEW,0.04,WeatherDisplay:10.37,2013-05-27 01:32:00,
2013-05-26 18:47:00,59.4,48.9,30.00,SW,222,2.0,9.0,68,0.00,OVC,FEW,0.04,WeatherDisplay:10.37,2013-05-27 01:47:00,
2013-05-26 19:02:00,58.8,48.7,30.00,WSW,256,1.0,6.0,69,0.00,OVC,FEW,0.04,WeatherDisplay:10.37,2013-05-27 02:02:00,
2013-05-26 19:17:00,58.5,49.1,30.00,West,259,1.0,4.0,71,0.00,OVC,FEW,0.04,WeatherDisplay:10.37,2013-05-27 02:17:00,
2013-05-26 19:32:00,57.9,48.6,30.00,West,269,3.0,5.0,71,0.00,OVC,FEW,0.04,WeatherDisplay:10.37,2013-05-27 02:32:00,
2013-05-26 19:47:00,57.4,48.4,30.01,SW,229,0.0,4.0,72,0.00,OVC,FEW,0.04,WeatherDisplay:10.37,2013-05-27 02:47:00,
2013-05-26 20:02:00,57.0,48.4,30.01,SSW,210,2.0,6.0,73,0.00,BKN,FEW,0.04,WeatherDisplay:10.37,2013-05-27 03:02:00,
2013-05-26 20:17:00,56.5,47.9,30.01,South,179,0.0,3.0,73,0.00,BKN,FEW,0.04,WeatherDisplay:10.37,2013-05-27 03:17:00,
2013-05-26 20:32:00,56.1,47.6,30.00,SW,225,0.0,1.0,73,0.00,BKN,FEW,0.04,WeatherDisplay:10.37,2013-05-27 03:32:00,
2013-05-26 20:47:00,55.6,47.1,30.01,SW,218,0.0,2.0,73,0.00,BKN,FEW,0.04,WeatherDisplay:10.37,2013-05-27 03:47:00,
2013-05-26 21:02:00,55.2,46.7,30.00,WSW,252,0.0,3.0,73,0.00,OVC,FEW,0.04,WeatherDisplay:10.37,2013-05-27 04:02:00,
2013-05-26 21:17:00,54.9,46.7,29.99,West,259,0.0,4.0,74,0.00,OVC,FEW,0.04,WeatherDisplay:10.37,2013-05-27 04:17:00,
2013-05-26 21:32:00,54.5,46.4,30.00,ESE,116,0.0,1.0,74,0.00,OVC,FEW,0.04,WeatherDisplay:10.37,2013-05-27 04:32:00,
2013-05-26 21:47:00,53.9,46.2,29.99,West,262,1.0,4.0,75,0.00,OVC,FEW,0.04,WeatherDisplay:10.37,2013-05-27 04:47:00,
2013-05-26 22:02:00,53.2,45.5,29.99,ESE,105,0.0,3.0,75,0.00,BKN,FEW,0.04,WeatherDisplay:10.37,2013-05-27 05:02:00,
2013-05-26 22:17:00,52.3,45.0,29.99,SE,130,1.0,5.0,76,0.00,BKN,FEW,0.04,WeatherDisplay:10.37,2013-05-27 05:17:00,
2013-05-26 22:32:00,52.0,44.6,29.99,East,94,0.0,1.0,76,0.00,BKN,FEW,0.04,WeatherDisplay:10.37,2013-05-27 05:32:00,
2013-05-26 22:47:00,51.1,43.8,29.98,ESE,112,0.0,0.0,76,0.00,BKN,FEW,0.04,WeatherDisplay:10.37,2013-05-27 05:47:00,
2013-05-26 23:02:00,50.2,43.2,29.98,ESE,106,0.0,1.0,77,0.00,OVC,FEW,0.04,WeatherDisplay:10.37,2013-05-27 06:02:00,
2013-05-26 23:17:00,49.1,42.5,29.98,SSE,167,0.0,0.0,78,0.00,OVC,FEW,0.04,WeatherDisplay:10.37,2013-05-27 06:17:00,
2013-05-26 23:32:00,48.4,42.2,29.98,ENE,66,0.0,0.0,79,0.00,OVC,FEW,0.04,WeatherDisplay:10.37,2013-05-27 06:32:00,
2013-05-26 23:47:00,47.8,41.6,29.97,ESE,121,0.0,1.0,79,0.00,OVC,FEW,0.04,WeatherDisplay:10.37,2013-05-27 06:47:00,